This demonstration page uses our WeatherBlox Daily Observations layout. Learn more.

Hourly Observations for April 12, 2017

Temp ( °F °C ) Dew Point ( °F °C ) Humidity (%) Winds ( mph kmh ) Pressure ( in mb ) Visibility ( mi km ) Precip ( " mm )
12:15 am 00:15 Clear 54 12.1 37 2.5 52 52 SSE 12 19 30.12 1020 10 16.0934 0 0
12:35 am 00:35 Clear 54 12 36 2.2 51 51 S 13 20 30.12 1020 10 16.0934 0 0
12:55 am 00:55 Clear 53 11.5 37 2.5 54 54 S 12 19 30.12 1020 10 16.0934 0 0
1:15 am 01:15 Clear 53 11.4 37 2.5 55 55 S 12 19 30.12 1020 10 16.0934 0 0
1:35 am 01:35 Clear 52 11 37 2.7 57 57 S 12 19 30.12 1020 10 16.0934 0 0
1:55 am 01:55 Clear 52 11.2 37 3 57 57 SSE 12 19 30.12 1020 10 16.0934 0 0
2:15 am 02:15 Clear 51 10.8 37 3 59 59 S 7 11 30.12 1020 10 16.0934 0 0
2:35 am 02:35 Clear 51 10.4 38 3.1 61 61 S 8 13 30.09 1019 10 16.0934 0 0
2:55 am 02:55 Clear 51 10.4 38 3.3 62 62 S 9 15 30.09 1019 10 16.0934 0 0
3:15 am 03:15 Clear 50 10.1 38 3.5 64 64 S 12 19 30.09 1019 10 16.0934 0 0
3:35 am 03:35 Clear 51 10.6 38 3.6 62 62 SSE 10 17 30.09 1019 10 16.0934 0 0
3:55 am 03:55 Clear 50 10.1 38 3.6 64 64 SSE 12 19 30.09 1019 10 16.0934 0 0
4:15 am 04:15 Clear 50 10 38 3.6 65 65 SSE 10 17 30.12 1020 10 16.0934 0 0
4:35 am 04:35 Clear 50 10 38 3.6 65 65 S 10 17 30.12 1020 10 16.0934 0 0
4:55 am 04:55 Clear with Thunderstorms 51 10.4 38 3.6 63 63 SSE 12 19 30.09 1019 10 16.0934 0 0
5:15 am 05:15 Clear 50 10.2 38 3.6 64 64 S 10 17 30.09 1019 10 16.0934 0 0
5:35 am 05:35 Partly Cloudy 51 10.5 39 3.7 63 63 S 8 13 30.09 1019 10 16.0934 0 0
5:55 am 05:55 Mostly Cloudy with Nearby Thunderstorms 52 11 39 3.8 61 61 SSE 14 22 30.09 1019 10 16.0934 0 0
6:15 am 06:15 Cloudy with Light Drizzle 52 11.1 40 4.5 64 64 S 15 24 30.09 1019 10 16.0934 0 0
6:35 am 06:35 Cloudy with Light Rain 51 10.3 41 4.9 69 69 S 13 20 30.09 1019 10 16.0934 0 0
6:55 am 06:55 Cloudy 51 10.6 40 4.6 67 67 S 9 15 30.09 1019 10 16.0934 0 0
7:15 am 07:15 Cloudy 51 10.4 40 4.5 67 67 S 13 20 30.09 1019 10 16.0934 0 0
7:35 am 07:35 Cloudy 50 10.2 40 4.6 68 68 SSE 9 15 30.09 1019 10 16.0934 0 0
7:55 am 07:55 Cloudy 50 10.2 40 4.6 68 68 SSE 14 22 30.09 1019 10 16.0934 0 0
8:15 am 08:15 Cloudy 51 10.3 40 4.6 68 68 SSE 16 26 30.06 1018 10 16.0934 0 0
8:35 am 08:35 Mostly Cloudy 51 10.7 40 4.4 65 65 SSE 16 26 30.06 1018 10 16.0934 0 0
8:55 am 08:55 Partly Cloudy 54 12.2 39 4.1 58 58 SSE 23 37 30.06 1018 10 16.0934 0 0
9:15 am 09:15 Partly Cloudy 52 11.2 40 4.4 63 63 SSE 22 35 30.06 1018 10 16.0934 0 0
9:35 am 09:35 Partly Cloudy 53 11.9 41 5 63 63 SSE 24 39 30.03 1017 10 16.0934 0 0
9:55 am 09:55 Sunny 55 12.8 41 5.1 60 60 SSE 23 37 30.03 1017 10 16.0934 0 0
10:15 am 10:15 Sunny 56 13.1 41 4.9 58 58 S 26 43 30 1016 10 16.0934 0 0
10:35 am 10:35 Sunny 58 14.5 41 5 53 53 S 22 35 30.03 1017 10 16.0934 0 0
10:55 am 10:55 Sunny with Nearby Thunderstorms 59 15 41 5.1 52 52 S 18 30 30.03 1017 10 16.0934 0 0
11:15 am 11:15 Sunny with Nearby Thunderstorms 61 16.1 41 5.2 49 49 S 18 30 30.03 1017 10 16.0934 0 0
11:35 am 11:35 Sunny 63 17 42 5.3 46 46 S 21 33 29.97 1015 10 16.0934 0 0
11:55 am 11:55 Sunny 64 17.8 43 5.9 46 46 S 16 26 29.97 1015 10 16.0934 0 0
12:15 pm 12:15 Sunny 65 18.6 43 6 44 44 S 16 26 29.97 1015 10 16.0934 0 0
12:35 pm 12:35 Sunny 67 19.6 44 6.4 42 42 S 14 22 29.97 1015 10 16.0934 0 0
12:55 pm 12:55 Sunny 72 22.3 43 5.9 35 35 SW 17 28 29.91 1013 10 16.0934 0 0
1:15 pm 13:15 Sunny 73 22.6 42 5.6 33 33 SW 18 30 29.91 1013 10 16.0934 0 0
1:35 pm 13:35 Sunny 73 23 43 6 33 33 SW 13 20 29.91 1013 10 16.0934 0 0
1:55 pm 13:55 Sunny 74 23.4 43 5.9 32 32 SSW 12 19 29.85 1011 10 16.0934 0 0
2:15 pm 14:15 Sunny 75 24.1 43 6 31 31 SW 14 22 29.85 1011 10 16.0934 0 0
2:35 pm 14:35 Sunny 77 25 43 6 30 30 SW 13 20 29.85 1011 10 16.0934 0 0
2:55 pm 14:55 Sunny 78 25.5 43 6.1 29 29 WSW 8 13 29.85 1011 10 16.0934 0 0
3:15 pm 15:15 Sunny 78 25.6 42 5.4 27 27 WSW 10 17 29.85 1011 10 16.0934 0 0
3:35 pm 15:35 Sunny 78 25.6 42 5.4 27 27 WSW 12 19 29.85 1011 10 16.0934 0 0
3:55 pm 15:55 Sunny 78 25.3 40 4.3 26 26 W 8 13 29.85 1011 10 16.0934 0 0
4:15 pm 16:15 Sunny 78 25.8 38 3.4 23 23 SW 8 13 29.85 1011 10 16.0934 0 0
4:35 pm 16:35 Sunny 78 25.7 37 2.8 23 23 W 5 7 29.85 1011 10 16.0934 0 0
4:55 pm 16:55 Sunny 79 26.1 37 2.5 22 22 SW 5 7 29.85 1011 10 16.0934 0 0
5:15 pm 17:15 Sunny 78 25.8 34 1 20 20 W 8 13 29.85 1011 10 16.0934 0 0
5:35 pm 17:35 Sunny 79 25.9 34 0.9 20 20 WNW 10 17 29.85 1011 10 16.0934 0 0
5:55 pm 17:55 Sunny 78 25.6 34 0.9 20 20 WNW 8 13 29.85 1011 10 16.0934 0 0
6:15 pm 18:15 Sunny 77 25.1 33 0.8 20 20 NW 9 15 29.88 1012 10 16.0934 0 0
6:35 pm 18:35 Sunny 77 24.9 34 1.2 21 21 NW 9 15 29.88 1012 10 16.0934 0 0
6:55 pm 18:55 Sunny 76 24.5 34 0.9 21 21 NNW 6 9 29.88 1012 10 16.0934 0 0
7:15 pm 19:15 Sunny 75 23.9 34 1.1 22 22 NNW 3 6 29.91 1013 10 16.0934 0 0
7:35 pm 19:35 Sunny 70 21.3 54 12 56 56 SSE 15 24 29.94 1014 10 16.0934 0 0
7:55 pm 19:55 Sunny 68 20.2 54 12 59 59 S 9 15 29.94 1014 10 16.0934 0 0
8:15 pm 20:15 Clear 67 19.6 53 11.9 61 61 S 9 15 29.97 1015 10 16.0934 0 0
8:35 pm 20:35 Clear 65 18.5 53 11.5 64 64 S 8 13 30 1016 10 16.0934 0 0
8:55 pm 20:55 Clear 65 18.1 53 11.6 66 66 S 8 13 30 1016 10 16.0934 0 0
9:15 pm 21:15 Clear 63 17.2 52 11.2 68 68 S 5 7 30 1016 10 16.0934 0 0
9:35 pm 21:35 Clear 60 15.7 52 11 74 74 S 6 9 30.06 1018 10 16.0934 0 0
9:55 pm 21:55 Clear 61 16.1 52 11.2 73 73 SSW 3 6 30.06 1018 10 16.0934 0 0
10:15 pm 22:15 Clear 59 14.8 52 11 78 78 SSW 5 7 30.06 1018 10 16.0934 0 0
10:35 pm 22:35 Clear 59 14.9 51 10.5 75 75 SSW 5 7 30.06 1018 10 16.0934 0 0
10:55 pm 22:55 Clear 54 12.1 47 8.6 79 79 Calm 30.09 1019 10 16.0934 0 0
11:15 pm 23:15 Clear 55 12.8 51 10.7 87 87 NW 7 11 30.12 1020 10 16.0934 0 0
11:35 pm 23:35 Clear 55 12.7 50 10 84 84 NW 5 7 30.12 1020 10 16.0934 0 0
11:55 pm 23:55 Clear 55 13 48 8.8 76 76 N 7 11 30.12 1020 10 16.0934 0 0

Powered by AerisWeather